Tributaries of Elbe river

river Ploučnice - water gauge Benešov nad Ploučnicí

Date and time (UTC) H (cm) Q (m³/s)
28. 9. 2022 15:20 82 5.2
28. 9. 2022 15:00 81 5
28. 9. 2022 14:00 80 5
28. 9. 2022 13:00 80 5
28. 9. 2022 12:00 86 6
28. 9. 2022 11:00 87 7
28. 9. 2022 10:00 81 5
28. 9. 2022 09:00 80 5
28. 9. 2022 08:00 81 5
28. 9. 2022 07:00 80 5
28. 9. 2022 06:00 81 5
28. 9. 2022 05:00 80 5
28. 9. 2022 04:00 81 5
28. 9. 2022 03:00 81 5

H - water level, Q - discharge

river Ohře - water gauge Louny

Date and time (UTC) H (cm) Q (m³/s)
28. 9. 2022 15:20 192 19
28. 9. 2022 15:00 192 19
28. 9. 2022 14:00 192 19
28. 9. 2022 13:00 192 19
28. 9. 2022 12:00 192 19
28. 9. 2022 11:00 191 18
28. 9. 2022 10:00 191 18
28. 9. 2022 09:00 191 18
28. 9. 2022 08:00 191 18
28. 9. 2022 07:00 191 18
28. 9. 2022 06:00 191 18
28. 9. 2022 05:00 192 19
28. 9. 2022 04:00 192 19
28. 9. 2022 03:00 192 19

H - water level, Q - discharge

Vraňany

Date and time (UTC) H (cm) Q (m³/s)
28. 9. 2022 15:20 120 192
28. 9. 2022 15:00 118 189
28. 9. 2022 14:00 119 190
28. 9. 2022 13:00 123 196
28. 9. 2022 12:00 121 193
28. 9. 2022 11:00 115 184
28. 9. 2022 10:00 110 176
28. 9. 2022 09:00 102 165
28. 9. 2022 08:00 99 160
28. 9. 2022 07:00 111 178
28. 9. 2022 06:00 118 189
28. 9. 2022 05:00 129 206
28. 9. 2022 04:00 130 208
28. 9. 2022 03:00 130 208

H - water level, Q - discharge

river Jizera - water gauge Předměřice

Date and time (UTC) H (cm) Q (m³/s)
28. 9. 2022 15:20 129 10
28. 9. 2022 15:00 131 11
28. 9. 2022 14:00 130 10
28. 9. 2022 13:00 124 9
28. 9. 2022 12:00 126 9
28. 9. 2022 11:00 142 13
28. 9. 2022 10:00 132 11
28. 9. 2022 09:00 129 10
28. 9. 2022 08:00 128 10
28. 9. 2022 07:00 126 9
28. 9. 2022 06:00 129 10
28. 9. 2022 05:00 125 9
28. 9. 2022 04:00 127 9
28. 9. 2022 03:00 129 10

H - water level, Q - discharge

river Cidlina - water gauge Sány

Date and time (UTC) H (cm) Q (m³/s)
28. 9. 2022 15:20 15 0.4
28. 9. 2022 15:00 15 0
28. 9. 2022 14:00 15 0
28. 9. 2022 13:00 14 0
28. 9. 2022 12:00 14 0
28. 9. 2022 11:00 14 0
28. 9. 2022 10:00 14 0
28. 9. 2022 09:00 14 0
28. 9. 2022 08:00 13 0
28. 9. 2022 07:00 13 0
28. 9. 2022 06:00 13 0
28. 9. 2022 05:00 13 0
28. 9. 2022 04:00 13 0
28. 9. 2022 03:00 12 0

H - water level, Q - discharge

river Orlice - water gauge Týniště nad Orlicí

Date and time (UTC) H (cm) Q (m³/s)
28. 9. 2022 15:20 76 8.9
28. 9. 2022 15:00 76 9
28. 9. 2022 14:00 75 9
28. 9. 2022 13:00 73 8
28. 9. 2022 12:00 73 8
28. 9. 2022 11:00 75 9
28. 9. 2022 10:00 76 9
28. 9. 2022 09:00 76 9
28. 9. 2022 08:00 74 9
28. 9. 2022 07:00 71 8
28. 9. 2022 06:00 71 8
28. 9. 2022 05:00 74 9
28. 9. 2022 04:00 76 9
28. 9. 2022 03:00 76 9

H - water level, Q - discharge
Source data
Labe Basin Vltava Basin Povodí Moravy ČHMÚ